SL-16 DEB, 22329

Orbit data source: Space-Track

SL-16 DEB, 22329 is space debris in LEO originally from a launch on Fri, 25 Dec 1992 UTC launched from the Tyuratam Missile And Space Complex (TTMTR). Debris objects in space refer to the collection of defunct objects orbiting the Earth. Examples of debris include non-operational satellites, rocket bodies, and fragments generated from explosions, collisions, or faulty payload assembly.

Loading next visibility...
Identifier
22329, 1992-093S
Orbit
LEO
Country
Flag of CISCIS
Related business
Manufacturer
Unknown
Mission
Spacecraft
Bus & Motor
Unknown
Mass
Unknown
Launch date (UTC)
1992-12-25 (33 years ago)
Launch vehicle
Unknown
Launch site
Tyuratam Missile And Space Complex (TTMTR)
Object type
Payload
Rocket body
Debris
Shape & HBR
Unknown shape, 0.1 m
Radar Cross Section
Small (<0.1 m²)

Expand to show TLE details & history
Last TLE update: 13 hours ago

TLE from 13 hours ago
0 SL-16 DEB
1 22329U 92093S   25349.79692399  .00215514  00000-0  21152-2 0  9999
2 22329  70.8643 235.9992 0015713 147.8732 212.3429 15.65091782735615
Epoch: 2025-12-15T19:07Z
TLE epoch observation values (Epoch: 2025-12-15T19:07:34.232Z)
Latitude
-0.00002°
Longitude
-135.58378°
Altitude
384.501 km
Speed
7.674 km/s
True Right ascension
15h 43m 59s
True Declination
0° 00' 00"
Sunlit
Object was in daylight at epoch
Visualization orbit readout
Latitude
Unknown
Longitude
Unknown
Altitude
Unknown
Speed
Unknown
Apparent Right ascension
Unknown
Apparent Declination
Unknown
Sunlit
N/A
Visualization observer readout
Local Sidereal Time
06:18:48
Azimuth
Unknown
Elevation
Unknown
Doppler factor
Unknown
Orbital elements
Apogee altitude
381.374 km
Perigee altitude
360.165 km
Semi-major axis
6,748.906 km
Eccentricity
0.00157
Inclination
70.8643°
RAAN
235.9992°
Arg. of periapsis
147.8732°
True anomaly
212.24673°
Mean anomaly
212.3429°
Eccentric anomaly
212.2948°
Mean motion
3.91465 °/min
Orbital period
91.96 mins
BSTAR
0.0021152
Loading maneuver chart data...
Computing Atmospheric mass density...
Loading historical data...
Loading historical data...
Loading historical data...
Loading historical data...
Loading historical data...
Loading historical data...
Loading historical data...

Documentation

Showing up to 5 results
|